Weather History for Camden, SC

Change the Weather History Date:

Sunday, June 23, 2013

  Actual Average (KSSC) Record (KSSC)
Temperature  
Mean Temperature 78 °F -  
Max Temperature 87 °F 85 °F 96 °F (2010)
Min Temperature 68 °F 66 °F 32 °F (2002)
Cooling Degree Days 12    
Growing Degree Days 28 (Base 50)    
Moisture  
Dew Point 71 °F    
Average Humidity 86    
Maximum Humidity 100    
Minimum Humidity 55    
Precipitation  
Precipitation 0.11 in - - ()
Sea Level Pressure  
Sea Level Pressure 30.18 in    
Wind  
Wind Speed 3 mph (South)    
Max Wind Speed 14 mph    
Max Gust Speed -    
Visibility 9 miles    
Events Rain , Thunderstorm    
Averages and records for this station are not official NWS values.
T = Trace of Precipitation, MM = Missing Value Source: NWS Daily Summary

Daily Weather History Graph

Daily Weather History Graph

Search for Another Location

Airport:

Trip Planner

Search our weather history database for the weather conditions in past years. The results will help you decide how hot, cold, wet, or windy it might be!

Date:

Astronomy

Jun. 23, 2013 Rise Set
Actual Time 6:11 AM EDT 8:37 PM EDT
Civil Twilight 5:41 AM EDT 9:07 PM EDT
Nautical Twilight 5:05 AM EDT 9:43 PM EDT
Astronomical Twilight 4:25 AM EDT 10:23 PM EDT
Moon 8:52 PM EDT (6/23) 6:24 AM EDT (6/23)
Length of Visible Light 15h 25m
Length of Day
14h 26m
Full, 100% of the Moon is Illuminated
Jun 23
Full
Jun 30
Last Quarter
Jul 8
New
Jul 15
First Quarter
Jul 22
Full

Hourly Weather History & Observations

Time (EDT) Temp. Heat Index Dew Point Humidity Pressure Visibility Wind Dir Wind Speed Gust Speed Precip Events Conditions
12:15 AM 71.6 °F - 69.8 °F 94% 30.18 in 9.0 mi West 5.8 mph - 0.03 in Thunderstorm Mostly Cloudy
12:35 AM 71.6 °F - 69.8 °F 94% 30.18 in 10.0 mi WSW 8.1 mph - 0.03 in Thunderstorm Mostly Cloudy
12:55 AM 71.6 °F - 68.0 °F 88% 30.20 in 9.0 mi SSE 5.8 mph - 0.03 in Rain , Thunderstorm Light Rain
1:15 AM 69.8 °F - 69.8 °F 100% 30.19 in 7.0 mi SSE 5.8 mph - 0.00 in Rain , Thunderstorm Light Thunderstorms and Rain
1:35 AM 69.8 °F - 69.8 °F 100% 30.18 in 3.0 mi SE 4.6 mph - 0.03 in Rain , Thunderstorm Light Rain
1:55 AM 69.8 °F - 69.8 °F 100% 30.19 in 10.0 mi SE 3.5 mph - 0.03 in Thunderstorm Scattered Clouds
2:15 AM 69.8 °F - 69.8 °F 100% 30.18 in 8.0 mi SE 4.6 mph - 0.00 in   Light Drizzle
2:35 AM 69.8 °F - 68.0 °F 94% 30.17 in 9.0 mi SW 3.5 mph - 0.00 in   Clear
2:55 AM 69.8 °F - 68.0 °F 94% 30.16 in 10.0 mi East 4.6 mph - 0.00 in   Clear
3:15 AM 69.8 °F - 68.0 °F 94% 30.16 in 10.0 mi Calm Calm - 0.00 in   Clear
3:35 AM 69.8 °F - 68.0 °F 94% 30.16 in 10.0 mi Calm Calm - 0.00 in   Clear
3:55 AM 68.0 °F - 68.0 °F 100% 30.16 in 10.0 mi Calm Calm - 0.00 in   Clear
4:15 AM 68.0 °F - 68.0 °F 100% 30.16 in 10.0 mi Calm Calm - 0.00 in   Clear
4:35 AM 68.0 °F - 68.0 °F 100% 30.16 in 10.0 mi Calm Calm - 0.00 in   Clear
4:55 AM 68.0 °F - 68.0 °F 100% 30.16 in 10.0 mi Calm Calm - 0.00 in   Clear
5:15 AM 68.0 °F - 68.0 °F 100% 30.16 in 10.0 mi Calm Calm - 0.00 in   Clear
5:35 AM 68.0 °F - 68.0 °F 100% 30.17 in 10.0 mi Calm Calm - 0.00 in   Clear
5:55 AM 68.0 °F - 68.0 °F 100% 30.17 in 10.0 mi Calm Calm - 0.00 in   Clear
6:15 AM 68.0 °F - 68.0 °F 100% 30.17 in 10.0 mi Calm Calm - 0.00 in   Clear
6:35 AM 68.0 °F - 68.0 °F 100% 30.18 in 10.0 mi Calm Calm - 0.00 in   Clear
6:55 AM 69.8 °F - 69.8 °F 100% 30.19 in 10.0 mi Calm Calm - 0.00 in   Partly Cloudy
7:15 AM 69.8 °F - 68.0 °F 94% 30.19 in 10.0 mi Calm Calm - 0.00 in   Partly Cloudy
7:35 AM 69.8 °F - 69.8 °F 100% 30.20 in 10.0 mi Calm Calm - 0.00 in   Clear
7:55 AM 69.8 °F - 69.8 °F 100% 30.21 in 10.0 mi Calm Calm - 0.00 in   Clear
8:15 AM 71.6 °F - 69.8 °F 94% 30.22 in 10.0 mi Calm Calm - 0.00 in   Clear
8:35 AM 75.2 °F - 71.6 °F 89% 30.22 in 10.0 mi Calm Calm - 0.00 in   Clear
8:55 AM 75.2 °F - 73.4 °F 94% 30.22 in 9.0 mi WSW 3.5 mph - 0.00 in   Clear
9:15 AM 77.0 °F - 73.4 °F 89% 30.22 in 8.0 mi SW 3.5 mph - 0.00 in   Clear
9:35 AM 77.0 °F - 73.4 °F 89% 30.22 in 9.0 mi West 3.5 mph - 0.00 in   Partly Cloudy
9:55 AM 78.8 °F - 71.6 °F 78% 30.23 in 10.0 mi Calm Calm - 0.00 in   Scattered Clouds
10:15 AM 78.8 °F - 71.6 °F 78% 30.23 in 10.0 mi SW 4.6 mph - 0.00 in   Partly Cloudy
10:35 AM 80.6 °F 84.6 °F 71.6 °F 74% 30.23 in 10.0 mi WNW 4.6 mph - 0.00 in   Partly Cloudy
10:55 AM 80.6 °F 84.6 °F 71.6 °F 74% 30.22 in 10.0 mi Calm Calm - 0.00 in   Clear
11:15 AM 82.4 °F 87.2 °F 71.6 °F 70% 30.22 in 10.0 mi Calm Calm - 0.00 in   Clear
11:35 AM 82.4 °F 87.2 °F 71.6 °F 70% 30.22 in 10.0 mi Calm Calm - 0.00 in   Clear
11:55 AM 82.4 °F 87.2 °F 71.6 °F 70% 30.22 in 10.0 mi SSW 3.5 mph - 0.00 in   Clear
12:15 PM 82.4 °F 87.2 °F 71.6 °F 70% 30.22 in 10.0 mi South 4.6 mph - 0.00 in   Clear
12:35 PM 84.2 °F 88.4 °F 69.8 °F 62% 30.21 in 10.0 mi SSW 3.5 mph - 0.00 in   Clear
12:55 PM 84.2 °F 88.4 °F 69.8 °F 62% 30.20 in 10.0 mi SSE 5.8 mph - 0.00 in   Clear
1:15 PM 84.2 °F 88.4 °F 69.8 °F 62% 30.19 in 10.0 mi Calm Calm - 0.00 in   Clear
1:35 PM 87.8 °F 92.6 °F 69.8 °F 55% 30.19 in 10.0 mi WSW 5.8 mph - 0.00 in   Partly Cloudy
1:55 PM 87.8 °F 92.6 °F 69.8 °F 55% 30.19 in 10.0 mi South 3.5 mph - 0.00 in   Clear
2:15 PM 87.8 °F 92.6 °F 69.8 °F 55% 30.18 in 9.0 mi Calm Calm - 0.00 in   Clear
2:35 PM 84.2 °F 87.3 °F 68.0 °F 58% 30.17 in 10.0 mi South 4.6 mph - 0.00 in   Partly Cloudy
2:55 PM 80.6 °F 85.4 °F 73.4 °F 79% 30.18 in 3.0 mi WSW 13.8 mph - 0.01 in Rain Light Rain
3:15 PM 75.2 °F - 73.4 °F 94% 30.18 in 3.0 mi WSW 6.9 mph - 0.01 in Thunderstorm Light Drizzle
3:35 PM 75.2 °F - 73.4 °F 94% 30.17 in 2.5 mi ESE 5.8 mph - 0.02 in Rain Rain
3:55 PM 75.2 °F - 73.4 °F 94% 30.17 in 10.0 mi Calm Calm - 0.04 in   Partly Cloudy
4:15 PM 77.0 °F - 73.4 °F 89% 30.16 in 9.0 mi Calm Calm - 0.00 in   Clear
4:35 PM 80.6 °F 85.4 °F 73.4 °F 79% 30.16 in 10.0 mi Calm Calm - 0.00 in   Clear
4:55 PM 78.8 °F - 73.4 °F 83% 30.16 in 9.0 mi SSE 4.6 mph - 0.00 in   Partly Cloudy
5:15 PM 78.8 °F - 73.4 °F 83% 30.15 in 4.0 mi Calm Calm - 0.00 in   Haze
5:35 PM 82.4 °F 87.2 °F 71.6 °F 70% 30.16 in 10.0 mi Calm Calm - 0.00 in   Clear
5:55 PM 82.4 °F 87.2 °F 71.6 °F 70% 30.15 in 9.0 mi Calm Calm - 0.00 in   Clear
6:15 PM 82.4 °F 88.2 °F 73.4 °F 74% 30.15 in 10.0 mi SW 3.5 mph - 0.00 in   Clear
6:35 PM 82.4 °F 88.2 °F 73.4 °F 74% 30.16 in 10.0 mi Calm Calm - 0.00 in   Clear
6:55 PM 82.4 °F 88.2 °F 73.4 °F 74% 30.16 in 10.0 mi WNW 4.6 mph - 0.00 in Thunderstorm Partly Cloudy
7:15 PM 82.4 °F 88.2 °F 73.4 °F 74% 30.16 in 10.0 mi Calm Calm - 0.00 in   Clear
7:35 PM 80.6 °F 85.4 °F 73.4 °F 79% 30.15 in 9.0 mi Calm Calm - 0.00 in Thunderstorm Clear
7:55 PM 80.6 °F 86.2 °F 75.2 °F 84% 30.16 in 10.0 mi SE 5.8 mph - 0.00 in   Partly Cloudy
8:15 PM 78.8 °F - 73.4 °F 83% 30.16 in 9.0 mi ESE 5.8 mph - 0.00 in Thunderstorm Clear
8:35 PM 78.8 °F - 73.4 °F 83% 30.16 in 10.0 mi East 6.9 mph - 0.00 in   Mostly Cloudy
8:55 PM 78.8 °F - 73.4 °F 83% 30.18 in 10.0 mi South 4.6 mph - 0.00 in   Overcast
9:15 PM 75.2 °F - 71.6 °F 89% 30.19 in 10.0 mi SE 5.8 mph - 0.00 in   Mostly Cloudy
9:35 PM 75.2 °F - 71.6 °F 89% 30.20 in 10.0 mi Calm Calm - 0.00 in   Mostly Cloudy
9:55 PM 75.2 °F - 73.4 °F 94% 30.19 in 10.0 mi ESE 5.8 mph - 0.00 in   Partly Cloudy
10:15 PM 73.4 °F - 71.6 °F 94% 30.20 in 10.0 mi SE 3.5 mph - 0.00 in   Partly Cloudy
10:35 PM 73.4 °F - 71.6 °F 94% 30.20 in 10.0 mi ESE 3.5 mph - 0.00 in   Mostly Cloudy
10:55 PM 73.4 °F - 71.6 °F 94% 30.20 in 10.0 mi Calm Calm - 0.00 in   Mostly Cloudy
11:15 PM 75.2 °F - 71.6 °F 89% 30.19 in 10.0 mi SE 3.5 mph - 0.00 in   Partly Cloudy
11:35 PM 73.4 °F - 71.6 °F 94% 30.19 in 10.0 mi Calm Calm - 0.00 in   Clear
11:55 PM 73.4 °F - 71.6 °F 94% 30.20 in 10.0 mi Calm Calm - 0.00 in   Clear